SCP
0 0 0 0 0 0 0 0 0 0 0 0 0 0 0 0 0 0 0 0 0 0 0 0 0 0 0 0 0 0 0 0 0 0 0 0 0 0 0 0 0 0 0
0 0 0 0 0 0 0 0 0 0 0 0 0 0 0 0 0 0 0 0 0 0 0 0 0 0 0 0 0 0 0 0 0 0 0 0 0 0 0 0 0 0 0
0 0 0 0 0 0 0 0 0 0 0 0 0 0 0 0 0 0 0 0 0 0 0 0 0 0 0 0 0 0 0 0 0 0 0 0 0 0 0 0 0 0 0
0 0 0 0 0 0 0 0 0 0 0 0 0 0 0 0 0 0 0 0 0 0 0 0 0 0 0 0 0 0 0 0 0 0 0 0 0 0 0 0 0 0 0
0 0 0 0 0 0 0 0 0 0 0 0 0 0 0 0 0 0 0 0 0 0 0 0 0 0 0 0 0 0 0 0 0 0 0 0 0 0 0 0 0 0 0
0 0 0 0 0 0 0 0 0 0 0 0 0 0 0 0 0 0 0 0 0 0 0 0 0 0 0 0 0 0 0 0 0 0 0 0 0 0 0 0 0 0 0
0 0 0 0 0 0 0 0 0 0 0 0 0 0 0 0 0 0 0 0 0 0 0 0 0 0 0 0 0 0 0 0 0 0 0 0 0 0 0 0 0 0 0
0 0 0 0 0 0 0 0 0 0 0 0 0 0 0 0 0 0 0 0 0 0 0 0 0 0 0 0 0 0 0 0 0 0 0 0 0 0 0 0 0 0 0
0 0 0 0 0 0 0 0 0 0 0 0 0 0 0 0 0 0 0 0 0 0 0 0 0 0 0 0 0 0 0 0 0 0 0 0 0 0 0 0 0 0 0
0 0 0 0 0 0 0 0 0 0 0 0 0 0 0 0 0 0 0 0 0 0 0 0 0 0 0 0 0 0 0 0 0 0 0 0 0 0 0 0 0 0 0
0 0 0 0 0 0 0 0 0 0 0 0 0 0 0 0 0 0 0 0 0 0 0 0 0 0 0 0 0 0 0 0 0 0 0 0 0 0 0 0 0 0 0
0 0 0 0 0 0 0 0 0 0 0 0 0 0 0 0 0 0 0 0 0 0 0 0 0 0 0 0 0 0 0 0 0 0 0 0 0 0 0 0 0 0 0
0 0 0 0 0 0 0 0 0 0 0 0 0 0 0 0 0 0 0 0 0 0 0 0 0 0 0 0 0 0 0 0 0 0 0 0 0 0 0 0 0 0 0
0 0 0 0 0 0 0 0 0 0 0 0 0 0 0 0 0 0 0 0 0 0 0 0 0 0 0 0 0 0 0 0 0 0 0 0 0 0 0 0 0 0 0
0 0 0 0 0 0 0 0 0 0 0 0 0 0 0 0 0 0 0 0 0 0 0 0 0 0 0 0 0 0 0 0 0 0 0 0 0 0 0 0 0 0 0
0 0 0 0 0 0 0 0 0 0 0 0 0 0 0 0 0 0 0 0 0 0 0 0 0 0 0 0 0 0 0 0 0 0 0 0 0 0 0 0 0 0 0
0 0 0 0 0 0 0 0 0 0 0 0 0 0 0 0 0 0 0 0 0 0 0 0 0 0 0 0 0 0 0 0 0 0 0 0 0 0 0 0 0 0 0
0 0 0 0 0 0 0 0 0 0 0 0 0 0 0 0 0 0 0 0 0 0 0 0 0 0 0 0 0 0 0 0 0 0 0 0 0 0 0 0 0 0 0
0 0 0 0 0 0 0 0 0 0 0 0 0 0 0 0 0 0 0 0 0 0 0 0 0 0 0 0 0 0 0 0 0 0 0 0 0 0 0 0 0 0 0
0 0 0 0 0 0 0 0 0 0 0 0 0 0 0 0 0 0 0 0 0 0 0 0 0 0 0 0 0 0 0 0 0 0 0 0 0 0 0 0 0 0 0
0 0 0 0 0 0 0 0 0 0 0 0 0 0 0 0 0 0 0 0 0 0 0 0 0 0 0 0 0 0 0 0 0 0 0 0 0 0 0 0 0 0 0
0 0 0 0 0 0 0 0 0 0 0 0 0 0 0 0 0 0 0 0 0 0 0 0 0 0 0 0 0 0 0 0 0 0 0 0 0 0 0 0 0 0 0
0 0 0 0 0 0 0 0 0 0 0 0 0 0 0 0 0 0 0 0 0 0 0 0 0 0 0 0 0 0 0 0 0 0 0 0 0 0 0 0 0 0 0
0 0 0 0 0 0 0 0 0 0 0 0 0 0 0 0 0 0 0 0 0 0 0 0 0 0 0 0 0 0 0 0 0 0 0 0 0 0 0 0 0 0 0
0 0 0 0 0 0 0 0 0 0 0 0 0 0 0 0 0 0 0 0 0 0 0 0 0 0 0 0 0 0 0 0 0 0 0 0 0 0 0 0 0 0 0
0 0 0 0 0 0 0 0 0 0 0 0 0 0 0 0 0 0 0 0 0 0 0 0 0 0 0 0 0 0 0 0 0 0 0 0 0 0 0 0 0 0 0
Wind_Speed
0 0 0 0 0 1 1 1 1 2 2 2 2 3 3 3 3 3 2 6 7 8 9 9 8 8 8 8 9 9 8 8 8 8 8 8 8 8 7 7 7 7 7
1 1 0 0 1 1 1 2 2 2 2 2 2 2 3 3 3 3 3 4 7 8 8 8 8 8 8 8 8 8 9 9 8 8 8 8 8 8 7 7 7 7 6
1 1 0 0 1 1 2 2 2 1 1 1 2 2 2 3 3 3 3 2 3 6 8 8 8 8 8 8 8 8 8 8 7 8 8 8 8 8 8 7 7 6 6
1 1 1 0 1 1 2 2 2 1 1 1 1 1 1 2 2 3 3 3 3 3 5 7 8 8 9 9 8 8 8 7 7 7 7 8 8 8 8 8 7 7 6
1 2 1 1 1 1 1 2 2 2 2 1 1 1 1 1 2 2 3 3 3 3 3 4 7 8 9 9 8 8 9 9 9 8 8 8 7 8 8 8 8 7 7
1 1 1 1 1 1 1 1 2 2 2 1 1 1 0 1 1 2 2 2 2 3 3 4 3 4 8 8 8 9 9 10 9 9 9 9 8 8 8 8 8 8 7
1 1 1 1 2 2 2 2 2 2 1 2 2 1 1 1 0 1 1 2 2 3 3 3 3 3 3 6 8 9 9 10 9 9 9 9 9 8 8 8 8 7 7
0 1 1 1 2 2 2 2 3 2 1 1 2 1 1 2 1 0 1 2 2 2 3 3 4 4 3 3 4 8 9 9 9 9 8 8 9 8 8 8 8 8 7
1 0 1 1 2 2 2 2 3 3 2 1 1 2 2 1 1 1 1 1 1 1 2 2 3 4 4 3 3 5 8 8 9 9 8 8 8 8 8 8 9 9 8
1 0 1 1 1 1 2 2 2 2 3 2 1 1 1 2 1 1 1 0 1 1 2 2 2 3 3 2 3 4 6 6 8 9 9 8 8 8 9 9 10 9 9
1 0 1 1 1 1 1 2 2 2 2 2 2 1 1 1 1 1 2 1 1 1 1 2 2 2 2 3 3 3 4 5 5 6 7 7 8 8 8 9 10 10 10
1 1 1 1 1 1 2 2 2 2 2 2 1 1 1 2 2 2 2 2 2 2 1 1 1 1 1 2 3 4 5 5 5 5 5 6 7 7 8 9 9 10 10
1 1 0 1 1 1 1 1 2 1 2 2 2 2 2 2 2 2 2 1 1 2 1 1 1 1 1 1 2 4 5 5 5 5 5 5 6 6 7 8 8 9 9
1 1 1 1 1 1 1 1 1 1 1 2 2 2 1 1 2 2 3 2 1 1 1 2 1 2 2 2 3 4 3 5 5 5 5 5 5 6 7 8 8 8 8
1 0 1 1 1 1 1 1 1 1 1 1 1 1 1 1 1 2 2 3 2 2 2 2 1 1 2 2 3 3 3 4 5 5 5 4 5 5 6 7 7 8 8
0 0 1 1 1 1 1 1 1 0 1 0 1 1 1 1 1 1 2 2 2 2 2 2 2 2 3 3 3 3 3 4 5 5 5 6 6 5 6 7 7 8 8
0 0 1 1 1 1 1 1 1 1 1 0 1 1 1 1 1 1 1 1 2 2 3 3 2 2 2 3 3 3 3 3 3 5 6 6 7 7 7 7 7 8 8
1 1 1 1 1 0 1 1 1 0 1 0 0 0 1 1 1 1 1 2 2 2 3 3 2 2 3 3 3 3 3 3 4 5 6 6 6 6 6 6 6 6 7
1 0 1 1 1 1 1 1 1 1 0 0 1 1 1 1 1 1 2 2 2 2 2 3 3 2 2 2 2 2 3 3 3 4 5 6 6 6 6 6 6 7 7
1 1 1 1 1 1 1 1 1 1 0 0 1 1 2 2 2 2 2 2 2 1 2 2 3 2 2 2 1 2 2 2 3 3 3 3 4 5 5 5 5 6 6
1 1 1 1 0 1 0 1 1 1 0 0 1 1 2 2 2 2 2 2 2 2 2 2 2 2 2 1 2 2 3 3 3 2 2 3 2 3 3 4 5 5 6
0 0 0 1 1 0 1 1 1 1 0 0 1 2 2 1 2 2 2 2 3 3 3 3 3 3 4 3 2 2 2 2 3 1 2 3 2 3 3 3 5 6 7
0 0 0 0 0 0 1 1 1 1 1 1 1 1 2 2 1 2 2 2 3 3 4 4 4 5 4 4 3 3 3 3 4 2 2 3 2 4 4 4 6 6 7
0 1 1 1 0 1 1 1 1 1 0 1 1 2 1 2 2 1 1 2 2 2 3 3 4 5 5 4 3 3 3 3 3 2 2 3 2 3 4 4 5 6 6
1 1 1 0 0 1 2 2 2 0 0 1 2 2 1 2 3 2 1 2 3 3 3 3 3 4 4 4 2 1 1 1 2 2 1 2 3 3 3 3 3 4 5
1 1 1 0 0 1 2 2 2 1 0 1 1 2 2 2 3 2 1 1 3 4 3 3 3 3 3 3 2 2 2 2 2 2 1 2 2 2 3 2 3 2 2
Wind_Direction
213 278 262 144 159 149 159 166 169 158 164 178 186 191 202 201 195 197 213 216 213 212 211 212 213 211 208 211 212 210 208 207 207 206 210 209 210 210 206 203 203 205 205
194 212 204 179 194 177 172 169 172 162 166 175 188 200 209 203 198 198 205 220 219 214 211 214 218 220 217 214 214 215 214 215 213 212 211 211 212 214 211 209 208 208 207
185 168 145 155 179 161 147 141 145 150 157 160 177 199 202 199 194 198 205 216 223 219 218 221 226 227 224 223 223 220 217 214 214 213 211 212 213 214 213 212 212 211 209
175 153 157 200 156 133 131 136 144 146 149 159 167 196 189 187 197 197 198 209 216 223 223 225 231 232 230 230 229 224 220 218 215 215 212 213 214 215 213 212 214 213 215
174 160 170 184 132 125 132 148 128 135 140 145 152 184 200 193 195 194 193 208 214 216 221 226 233 233 231 232 232 230 225 224 222 218 216 215 214 215 212 211 213 214 219
186 161 166 164 138 130 121 122 128 118 131 141 114 31 322 234 201 203 202 202 211 222 225 229 234 238 235 237 239 235 230 227 224 222 222 220 221 220 214 211 213 215 218
181 169 171 155 151 152 155 143 132 123 119 115 98 44 10 358 217 208 193 200 216 225 217 222 226 231 239 243 242 238 236 232 228 226 222 220 221 219 214 211 211 213 217
160 176 161 164 155 149 145 145 142 129 128 125 130 108 13 355 351 257 186 197 220 219 223 227 224 225 232 241 243 238 236 235 232 228 226 223 220 216 215 212 210 214 218
38 66 141 157 155 157 168 172 160 154 161 152 144 148 155 224 312 337 272 213 208 214 233 236 233 232 232 235 244 240 236 234 234 234 232 228 222 216 214 216 216 217 219
25 79 135 143 148 157 175 192 174 167 162 178 191 201 190 163 169 323 332 309 241 238 254 252 250 240 235 237 237 231 236 237 238 239 239 234 227 222 219 219 221 221 220
360 57 132 133 146 157 170 177 163 162 169 179 178 171 166 151 175 185 271 308 334 300 280 265 261 253 239 230 231 230 231 236 237 239 240 237 232 229 225 224 225 226 226
358 23 98 127 151 160 171 178 166 160 164 162 171 179 178 176 184 184 221 262 291 303 301 276 266 260 249 243 241 235 232 234 237 241 242 242 238 234 231 232 231 230 230
333 343 51 122 145 179 176 164 150 163 167 168 185 200 204 210 184 173 182 226 273 300 302 269 242 247 258 260 256 249 241 238 239 243 244 243 241 239 238 236 236 235 232
274 323 57 79 104 125 132 128 136 169 158 184 207 198 203 219 196 182 181 183 239 284 269 264 271 247 264 266 264 255 256 247 244 244 244 244 244 243 242 239 237 234 230
248 54 77 80 78 89 98 114 115 158 147 178 208 206 213 235 215 207 192 187 193 245 270 254 255 268 267 267 272 258 253 253 244 243 241 245 251 250 249 244 236 230 228
285 106 89 90 94 96 104 111 119 158 143 224 217 204 228 237 225 203 199 203 204 212 248 257 258 275 274 280 284 269 261 255 247 247 248 249 247 252 255 248 238 232 228
287 162 130 119 119 107 113 110 113 107 123 333 304 242 255 234 213 217 211 211 216 213 245 272 258 276 262 268 282 272 268 260 260 255 254 251 249 249 252 250 243 236 229
249 201 148 134 152 158 148 142 172 160 149 126 310 284 279 258 247 243 224 225 228 221 227 266 279 276 264 265 269 272 274 269 268 269 261 258 253 251 251 248 242 237 231
243 199 132 159 195 189 148 147 151 163 160 205 227 225 255 232 252 255 239 231 234 228 226 243 271 270 273 285 279 277 277 274 277 276 263 255 251 249 251 249 243 238 234
212 208 180 184 200 193 162 158 142 133 116 312 278 251 251 232 236 239 241 231 222 224 229 239 263 274 274 285 267 275 285 271 274 284 275 266 261 253 255 253 245 240 233
200 186 160 160 158 173 189 160 160 178 158 338 316 281 258 248 242 236 239 221 205 221 230 243 259 272 268 271 265 260 267 280 267 257 274 275 270 262 260 258 250 246 237
122 110 173 187 176 215 78 120 144 192 197 252 292 308 292 285 284 271 259 237 213 220 232 243 252 259 267 259 257 253 263 278 279 250 256 275 262 262 263 259 258 248 243
86 80 275 194 217 325 53 98 121 164 199 257 274 295 305 317 311 274 274 272 265 254 235 235 248 256 262 260 250 251 247 256 266 272 255 273 258 263 267 265 252 244 242
297 253 244 238 235 357 45 62 78 130 212 297 291 282 280 301 309 297 275 283 281 282 259 246 254 264 266 266 244 241 246 264 282 273 237 264 272 272 280 273 251 237 236
287 288 272 239 35 325 24 66 85 82 18 326 315 323 312 298 320 323 288 288 300 302 295 277 277 285 292 289 265 234 239 274 293 290 244 258 280 291 285 274 267 244 237
252 290 312 300 144 336 21 43 91 140 309 311 336 334 340 343 332 341 259 266 286 295 313 330 331 324 313 311 288 245 228 237 270 277 253 247 274 293 295 288 290 277 255